Weather Roundup
Issued by NWS

Home | Current Version | Previous Version | Text Only | Print | Product List | Glossary On
Versions: 1 2 3 4 5 6 7 8 9 10 11 12 13 14 15 16 17 18 19 20 21 22 23 24 25 26 27 28 29 30 31 32 33 34 35 36 37 38 39 40 41 42 43 44 45 46 47 48 49 50
000
NZUS93 KARX 282159
HRRWXR

CURRENT HOURLY OBSERVATIONS ACROSS
MUCH OF THE UPPER MISSISSIPPI VALLEY
NATIONAL WEATHER SERVICE LA CROSSE WI
400 PM CST FRI NOV 28 2014


...SOUTHEAST MINNESOTA...


CITY           SKY/WX    TMP DP  RH WIND       PRES   REMARKS
ROCHESTER      PTCLDY    24  19  81 SE8       29.83S WCI  15
ROCHESTER/MAYO CLOUDY    24  18  75 SE8       29.84S WCI  16
WINONA         MIX PCPN  28  21  74 CALM      29.90R
AUSTIN         FAIR      25  19  80 SE8       29.80F WCI  16
ALBERT LEA     PTCLDY    25  21  86 SE8       29.79S WCI  16
DODGE CENTER   PTCLDY    23  21  93 SE13      29.80F WCI  11
PRESTON        CLOUDY    24  19  82 SE8       29.83F WCI  15
OWATONNA       FAIR      25  19  80 SE12      29.79F WCI  14
FARIBAULT      PTCLDY    25  19  80 E9        29.81F WCI  15
$$

...ELSEWHERE IN MINNESOTA...


CITY           SKY/WX    TMP DP  RH WIND       PRES   REMARKS
MINNEAPOLIS    CLOUDY    22  15  75 SE10      29.85S WCI  11
INTNL FALLS    CLOUDY    15   7  70 E7        29.85F WCI   5
DULUTH         LGT SNOW  15  11  83 E8        29.83F WCI   4
RED WING       MOCLDY    25  16  68 SE7       29.86S WCI  17
REDWOOD FALLS  MOCLDY    23  17  78 E7        29.75F WCI  15
MANKATO        MOCLDY    23  18  80 SE12      29.78F WCI  12
WORTHINGTON    PTCLDY    28  23  80 SE12      29.69S WCI  18
FAIRMONT       PTCLDY    25  19  80 SE12      29.74F WCI  14
$$

...SOUTHWEST WISCONSIN...


CITY           SKY/WX    TMP DP  RH WIND       PRES   REMARKS
LA CROSSE      MIX PCPN  29  20  69 SE9       29.89R WCI  20
PRAIRIE DU CHI MOCLDY    29  20  70 E7        29.89F WCI  22
BOSCOBEL       CLOUDY    28  19  69 E5        29.91F WCI  23
LONE ROCK      MOCLDY    30  19  63 SE9       29.92F WCI  22
PLATTEVILLE    MOCLDY    28  23  79 CALM      29.90F
FORT MC COY    MIX PCPN  26  17  68 S5        29.90F WCI  21
VIROQUA        CLOUDY    25  19  78 SE7       29.87R WCI  17
WIS DELLS      NOT AVBL
$$

...ELSEWHERE IN WISCONSIN...


CITY           SKY/WX    TMP DP  RH WIND       PRES   REMARKS
MILWAUKEE      MOCLDY    29  18  63 S8        29.98F WCI  21
MADISON        CLOUDY    27  20  75 S12       29.94F WCI  17
GREEN BAY      LGT SNOW  25  22  88 CALM      29.98F FOG
EAU CLAIRE     CLOUDY    23  16  74 E7        29.87S WCI  15
BLACK RVR FLS  MOCLDY    27  15  62 SE5       29.87F WCI  21
MEDFORD        LGT SNOW  17  12  83 SE7       29.87F WCI   7
WAUSAU         FLURRIES  18  13  80 SE7       29.90F WCI   9
WIS RAPIDS     CLOUDY    23  15  71 E7        29.91F WCI  15
MARSHFIELD     CLOUDY    21  14  74 E9        29.86F WCI  11
RICE LAKE      CLOUDY    19  13  77 E7        29.89S WCI  10
$$

...NORTHEAST IOWA...


CITY           SKY/WX    TMP DP  RH WIND       PRES   REMARKS
DECORAH        PTCLDY    27  21  80 VRB6G13   29.85R WCI  20
MASON CITY     PTCLDY    26  22  84 SE13      29.79F WCI  15
CHARLES CITY   MOCLDY    28  23  80 SE13      29.83R WCI  18
OELWEIN        FAIR      30  25  80 SE14      29.83F WCI  20
$$

...ELSEWHERE IN IOWA...


CITY           SKY/WX    TMP DP  RH WIND       PRES   REMARKS
DES MOINES     PTCLDY    44  30  57 SE8       29.78F
IOWA CITY      PTCLDY    33  27  78 E9        29.89F WCI  25
FORT DODGE     PTCLDY    30  25  80 SE9       29.76F WCI  22
$$

...NORTHERN ILLINOIS...


CITY           SKY/WX    TMP DP  RH WIND       PRES   REMARKS
CHICAGO-OHARE  CLOUDY    31  24  75 S16G24    29.98F WCI  20
CHICAGO-MIDWAY CLOUDY    33  23  66 S13       30.00S WCI  24
MOLINE         PTCLDY    35  28  75 SE5       29.91S WCI  31
ROCKFORD       CLOUDY    31  26  82 S7        29.97S WCI  24
PEORIA         MOCLDY    39  30  70 S13       29.95R WCI  31
$$

NOTE: "FAIR" INDICATES FEW OR NO CLOUDS BELOW 12,000 FEET WITH NO
SIGNIFICANT WEATHER AND/OR OBSTRUCTIONS TO VISIBILITY. WIND
SPEEDS ARE IN MILES-PER-HOUR.



USA.gov is the U.S. government's official web portal to all federal, state and local government web resources and services.